Regional Weather Roundup
Issued by NWS San Diego, CA

Home | Current Version | Previous Version | Text Only | Print | Product List | Glossary On
Versions: 1 2 3 4 5 6 7 8 9 10 11 12 13 14 15 16 17 18 19 20 21 22 23 24 25 26 27 28 29 30 31 32 33 34 35 36 37 38 39 40 41 42 43 44 45 46 47 48 49 50
000
ASUS46 KSGX 050511
RWRSGX

SAN DIEGO HOURLY WEATHER ROUNDUP
NATIONAL WEATHER SERVICE SAN DIEGO CA
1000 PM PDT FRI SEP 04 2015

NOTE: "FAIR" INDICATES FEW OR NO CLOUDS BELOW 12,000 FEET WITH NO
SIGNIFICANT WEATHER AND/OR OBSTRUCTIONS TO VISIBILITY.

CAZ042-043-060-061-PZZ750-775-050600-

GREATER SAN DIEGO AREA

CITY           SKY/WX    TMP DP  RH WIND       PRES   REMARKS
LINDBERGH FLD  PTCLDY    69  58  67 W5        29.90R
POINT LOMA       N/A     64  57  79 W6          N/A
NATIONAL CITY    N/A     69  62  78 CALM      29.90R
CHULA VISTA      N/A     68  62  80 W3        29.82R
IMPERIAL BEACH CLOUDY   N/A N/A N/A CALM      29.89R
BROWN FIELD    CLOUDY    66  59  78 W3        29.89R
MIRAMAR MCAS   MOCLDY    68  57  68 SW3       29.89R
MONTGOMERY FLD MOCLDY    68  59  73 SW3       29.90R

$$

NORTH SAN DIEGO COUNTY

CITY           SKY/WX    TMP DP  RH WIND       PRES   REMARKS
CAMP PENDLETON CLEAR     65  57  75 CALM      29.88R
OCEANSIDE AP   MOCLDY    66  58  75 CALM      29.88R
OCEANSIDE HBR    N/A     69  62  78 SW1       29.90R
VISTA            N/A     65  59  82 CALM      29.86R
CARLSBAD       MOCLDY    67  60  78 CALM      29.88R
DEL MAR          N/A     67  61  81 CALM      29.91R
LA JOLLA SCRIP   N/A    N/A N/A N/A CALM      29.86R
FALLBROOK        N/A     63  62  96 CALM      29.87S
ESCONDIDO        N/A     66  60  80 W2        29.91R
SAN MARCOS       N/A     65  59  80 CALM      29.87R
POWAY            N/A     65  58  80 CALM      29.89R

$$

EAST SAN DIEGO COUNTY

CITY           SKY/WX    TMP DP  RH WIND       PRES   REMARKS
RAMONA         CLEAR     59  55  87 W6        29.91R
SANTEE LAKES     N/A     65  59  80 CALM      29.88R
LA MESA          N/A     65  59  80 CALM      29.82R
JAMUL            N/A     63  58  84 CALM      29.88R
DESCANSO N       N/A     61  48  60 E3        29.75R
CAMPO            N/A     56  50  80 CALM      29.90R

$$

ORANGE COUNTY AND THE LOS ANGELES BASIN

CITY           SKY/WX    TMP DP  RH WIND       PRES   REMARKS
JOHN WAYNE AP  CLEAR     68  59  73 S6        29.87R
LAGUNA BEACH     N/A    N/A N/A N/A NW1       29.84R
LAKE FOREST FR   N/A     63  56  77 CALM      29.77R
SANTA ANA        N/A     69  59  69 CALM      29.82R
HUNTINGTON BCH   N/A     67  61  80 CALM      29.88S
LOS ALAMITOS   PTCLDY    68  59  73 SE2       29.86R
FULLERTON      CLEAR     70  59  68 S3        29.85R
LONG BEACH     CLEAR     71  59  65 CALM      29.86R
L.A. AP        CLEAR     69  60  73 SW3       29.86R
L.A. DOWNTOWN  CLEAR     69  58  67 CALM      29.85R

$$

THE INLAND EMPIRE

CITY           SKY/WX    TMP DP  RH WIND       PRES   REMARKS
CORONA         CLEAR     66  57  72 W6        29.88R
CHINO          CLEAR     67  57  70 W7        29.89R
ONTARIO        CLEAR     68  56  65 SW6       29.88R
RIVERSIDE AP   CLEAR     70  56  61 W5        29.88R
MORENO VALLEY    N/A     66  59  78 CALM      29.87R
MARCH ARB      CLEAR     65  55  70 NW2       29.90R
HORSETHIEF CYN   N/A     65  50  56 S1        29.90R
PERRIS           N/A     67  58  73 CALM      29.90R
MENIFEE          N/A     65  60  82 S2        29.88R
HEMET EAST       N/A     64  54  70 CALM      29.90R
FRENCH VALLEY  FAIR      63  55  77 S7        29.91R
TEMECULA         N/A     64  59  85 SE2       29.87R

$$

SAN BERNARDINO AND RIVERSIDE COUNTY MOUNTAINS

CITY           SKY/WX    TMP DP  RH WIND       PRES   REMARKS
BIG BEAR AP    CLEAR     46  36  66 CALM      30.10R
PINE COVE        N/A     57  31  37 CALM      29.82R

$$

SOUTHERN DESERT INCLUDING THE COACHELLA VALLEY

CITY           SKY/WX    TMP DP  RH WIND       PRES   REMARKS
PALM SPRINGS   CLEAR     83  48  29 NW15      29.76R
THOUSAND PALMS   N/A     82  48  30 W13       29.72R
PALM DESERT      N/A     84  50  31 N10         N/A
THERMAL        CLEAR     87  45  23 N14G21    29.68R
BLYTHE         CLEAR     89  54  30 S16       29.74R
IMPERIAL AP    CLEAR     91  65  41 E12       29.70R
EL CENTRO NAS  CLEAR     87  63  44 E9        29.72R
YUMA AZ        CLEAR     87  69  54 S20       29.74R
MEXICALI       CLEAR     86  70  58 SE17      29.72R

$$

UPPER DESERT

CITY           SKY/WX    TMP DP  RH WIND       PRES   REMARKS
VICTORVILLE AP CLEAR     66  46  48 CALM      29.91R
HESPERIA         N/A     66  51  58 W2        29.89R
APPLE VALLEY     N/A     68  49  50 SW5       29.95S
PALMDALE       CLEAR     66  48  52 SW8       29.89S
LANCASTER      CLEAR     66  50  56 W17       29.89R
EDWARDS AFB    CLEAR     67  49  51 SW16G24   29.85R
DAGGETT        CLEAR     75  47  36 W20       29.82R
29 PALMS N     CLEAR     78  38  23 S12       29.88R
NEEDLES        CLEAR     93  38  14 SW12      29.73R

$$

REGIONAL REPORTS

CITY           SKY/WX    TMP DP  RH WIND       PRES   REMARKS
SANTA BARBARA  CLEAR     65  54  67 CALM      29.85S
SANDBERG       CLEAR     59  39  47 S8        30.01R
LAS VEGAS NV   CLEAR     87  28  12 S12       29.73R
PHOENIX AZ     CLOUDY    87  61  41 SE7       29.82S
TIJUANA        CLOUDY    66  55  68 W8        29.91R
ENSENADA NW      N/A     68  32  26 W12       29.86R

$$

OFFSHORE ISLANDS

CITY           SKY/WX    TMP DP  RH WIND       PRES   REMARKS
CATALINA ARPT  MOCLDY    60  58  92 W5        29.91R
SAN NICOLAS IS CLEAR    N/A N/A N/A NW20      29.88R

$$

MARINE AND OFFSHORE BUOY REPORTS

STATION/POSITION SKY/WX   TEMP    WIND        PRES    SWELL
                          AIR SEA DIR/SP/G            HT/PER/DIR
                          (F)     (DEG/KT/KT) (MB)    (FT/S/D)
TANNER BANKS               65 68  320/ 16/ 19 1011.8R   5/310/11
S CLEMENTE BASIN           67 71  290/ 10/ 10 1012.1R   5/220/19
SO. S. ROSA ISLA           63 65  330/ 23/ 27 1011.0R   5/11
W. S. BARBARA CH           63 65  330/ 23/ 27 1011.3R   5/300/ 8
M. S. BARBARA CH           69 70  270/  6/  8 1011.5R
S. MONICA BASIN            69 72  310/  6/  8 1011.1R   3/220/11
S PEDRO CHANNEL               73                N/A     2/190/20
DANA POINT                    74                N/A     2/190/20
OCEANSIDE OFFSHR              73                N/A     2/200/20
TORREY PINES OTR              74                N/A     2/210/20
LA JOLLA 1                 69 74  270/  4/  5 1011.3R
MISSION BAY BUOY              73                N/A     2/190/20
SAN DIEGO BAY                 78              1012.2R
POINT LOMA SOUTH              72                N/A     3/200/20

$$




USA.gov is the U.S. government's official web portal to all federal, state and local government web resources and services.